TimeCST,TemperatureF,Dew PointF,Humidity,Sea Level PressureIn,VisibilityMPH,Wind Direction,Wind SpeedMPH,Gust SpeedMPH,PrecipitationIn,Events,Conditions,WindDirDegrees,DateUTC
12:42 AM,73.4,71.6,94,29.95,6.0,NW,5.8,-,N/A,,Mostly Cloudy,310,2013-02-16 06:42:00
1:48 AM,71.6,69.8,94,29.94,6.0,NW,4.6,-,N/A,,Mostly Cloudy,320,2013-02-16 07:48:00
2:45 AM,71.6,69.8,94,29.93,6.0,NNW,6.9,-,N/A,,Mostly Cloudy,330,2013-02-16 08:45:00
3:46 AM,71.6,69.8,94,29.94,6.0,NNW,4.6,-,N/A,,Mostly Cloudy,330,2013-02-16 09:46:00
4:42 AM,71.6,69.8,94,29.95,6.0,NNW,6.9,-,N/A,,Mostly Cloudy,330,2013-02-16 10:42:00
5:48 AM,71.6,69.8,94,29.96,6.0,NNW,6.9,-,N/A,,Mostly Cloudy,330,2013-02-16 11:48:00
6:43 AM,69.8,68.0,94,29.99,7.0,NW,5.8,-,N/A,,Mostly Cloudy,320,2013-02-16 12:43:00
7:56 AM,73.4,69.8,88,30.02,7.0,NNW,10.4,-,N/A,,Mostly Cloudy,330,2013-02-16 13:56:00
8:41 AM,77.0,69.8,78,30.04,7.0,NNW,16.1,-,N/A,,Mostly Cloudy,330,2013-02-16 14:41:00
9:43 AM,75.2,66.2,73,30.08,7.0,NW,16.1,-,N/A,,Mostly Cloudy,320,2013-02-16 15:43:00
10:40 AM,78.8,62.6,57,30.08,7.0,NNW,15.0,-,N/A,,Mostly Cloudy,330,2013-02-16 16:40:00
11:48 AM,80.6,64.4,58,30.07,7.0,NNW,16.1,-,N/A,,Mostly Cloudy,340,2013-02-16 17:48:00
12:40 PM,78.8,64.4,61,30.06,7.0,NW,17.3,-,N/A,,Mostly Cloudy,320,2013-02-16 18:40:00
1:46 PM,78.8,62.6,57,30.06,7.0,NNW,16.1,-,N/A,,Mostly Cloudy,330,2013-02-16 19:46:00
2:43 PM,75.2,60.8,61,30.06,7.0,NNW,16.1,28.8,N/A,,Mostly Cloudy,330,2013-02-16 20:43:00
3:44 PM,73.4,59.0,61,30.07,7.0,North,16.1,-,N/A,,Mostly Cloudy,350,2013-02-16 21:44:00
4:42 PM,73.4,59.0,61,30.09,7.0,North,12.7,-,N/A,,Mostly Cloudy,360,2013-02-16 22:42:00
5:42 PM,71.6,55.4,57,30.10,7.0,NNW,12.7,-,N/A,,Mostly Cloudy,340,2013-02-16 23:42:00
6:41 PM,69.8,53.6,56,30.12,7.0,NNW,9.2,-,N/A,,Scattered Clouds,340,2013-02-17 00:41:00
7:43 PM,68.0,55.4,64,30.14,7.0,NNW,8.1,-,N/A,,Partly Cloudy,330,2013-02-17 01:43:00
8:40 PM,68.0,53.6,60,30.16,7.0,NNW,9.2,-,N/A,,Partly Cloudy,330,2013-02-17 02:40:00
9:48 PM,66.2,53.6,64,30.18,7.0,NW,11.5,-,N/A,,Partly Cloudy,320,2013-02-17 03:48:00
10:47 PM,64.4,53.6,68,30.18,7.0,NW,5.8,-,N/A,,Partly Cloudy,320,2013-02-17 04:47:00
11:47 PM,62.6,53.6,72,30.15,7.0,NW,5.8,-,N/A,,Clear,320,2013-02-17 05:47:00